Location: Mahannah Oil Field
(37.4664°N, 96.6003°W)
Time: 02:41:12
(UTC+00:00)

deb Explorer IX - Pass Details

Date: 30 January 2021
Orbit: 537 x 1102 km, 38.8° (Epoch: 01 March)

Event Time Altitude Azimuth Distance (km) Brightness Sun altitude
Rises 18:54:46 0° 195° (SSW) 3,851 ? 35.0°
Reaches altitude 10° 18:58:31 10° 177° (S) 2,935 ? 34.9°
Maximum altitude 19:02:58 17° 139° (SE) 2,441 ? 34.8°
Drops below altitude 10° 19:07:24 10° 101° (E) 2,925 ? 34.7°
Sets 19:11:06 0° 83° (E) 3,834 ? 34.6°
